sat.trackr.live / text

‹ back to catalog

STARLINK-33647

NORAD 63411 · 2025-065N

PAYLOAD ACTIVE UNKNOWN

§ Identity

Operator
Country
US
Launch date
2025-03-31
Launch site
AFETR
Launch vehicle
Mass (kg)
RCS (m²)

Purposes: comms

External: N2YO · Heavens-Above · Gunter

§ Orbital elements

Epoch: 2026-09-20T22:27:01.869120Z

Period
94.27 min
Inclination
43.0023°
Eccentricity
0.0003351
Mean motion
15.27607801 rev/d
Perigee alt
480.7 km
Apogee alt
485.3 km
Semi-major
6,861.1 km
B*
5.9135e-4
RAAN
91.9203°
Arg perigee
259.4993°
Mean anomaly
100.5481°
Rev number
8,261

§ Raw data

STARLINK-336471 63411U 25065N   26263.93543830  .00016061  00000+0  59135-3 0  99962 63411  43.0023  91.9203 0003351 259.4993 100.5481 15.27607801 82619

JSON: /api/v1/satellites/63411 · /tle

For live sub-satellite position, see the globe view (requires WebGL).

§ Visibility from observer

Set your observer location to see the next 7 days of passes ≥ 10°. The values pass through the URL so the page stays shareable.

No JS? Fill the form by hand. The geolocation button needs JavaScript.